Location: Allisons_Woods
(35.8920°N, 81.8170°W)
Time: 12:55:59
(UTC-04:00)

Daily predictions for brighter satellites

Satellite Brightness Start Highest point End
(mag) Time Altitude Azimuth Time Altitude Azimuth Time Altitude Azimuth
Envisat 4.5 20:56:09 10° ESE 20:59:46 20° ENE 21:03:23 10° NNE
Cosmos 1844 Rocket 2.9 20:54:25 10° SSW 21:00:05 81° WNW 21:05:44 10° NNE
Cosmos 1825 3.5 20:59:12 10° SE 21:02:11 22° E 21:05:12 10° NE
FENGYUN 3A 3.7 20:57:15 10° SSE 21:02:37 76° ENE 21:08:00 10° N
Meteor 2-6 Rocket 4.5 20:58:27 10° N 21:04:15 55° E 21:09:53 10° SSE
Cosmos 2278 Rocket 2.4 20:59:27 10° S 21:04:55 51° ESE 21:10:24 10° NNE
Atlas Centaur 2 2.4 21:03:08 10° WSW 21:06:25 26° SSW 21:09:27 10° SE
ERS-1 Rocket 3.7 21:04:09 10° SE 21:08:41 35° ENE 21:13:14 10° N
COSMOS 2406 3.6 21:03:34 10° NNW 21:09:16 67° WSW 21:14:53 10° S
Cosmos 1844 3.8 21:05:53 10° SSW 21:11:38 88° WNW 21:17:29 10° NNE
ISS -1.2 21:09:39 10° W 21:12:33 30° NW 21:15:29 10° NNE
H-2A R/B 3.5 21:09:51 10° ESE 21:13:01 20° ENE 21:16:08 10° NNE
APEX 4.2 21:12:50 10° SSE 21:16:11 31° ESE 21:20:24 10° NE
Cosmos 2154 Rocket 4.1 21:11:14 10° SSE 21:17:13 53° E 21:23:13 10° NNE
Cosmos 1939 Rocket 4.0 21:15:00 11° SE 21:18:10 27° ENE 21:21:30 10° NNE
Cosmos 407 Rocket 3.5 21:13:59 10° NNW 21:19:18 83° ENE 21:24:38 10° SSE
Abrixas 2.8 21:18:22 10° SSW 21:21:16 42° SE 21:24:11 10° ENE
YAOGAN 11 4.3 21:17:44 10° SSE 21:22:09 57° ENE 21:26:39 10° N
Cosmos 2184 Rocket 4.4 21:17:06 10° SSW 21:23:12 66° W 21:29:22 10° N
COSMOS 2487 3.3 21:20:06 10° N 21:23:26 34° ENE 21:25:58 15° SE
Cosmos 1238 Rocket 3.7 21:20:31 10° NNE 21:23:43 30° E 21:26:52 13° SE
SPOT 5 4.3 21:23:31 13° ESE 21:27:19 27° ENE 21:31:44 10° NNE
Cosmos 2082 Rocket 3.7 21:23:14 10° N 21:27:24 20° ENE 21:30:58 12° E
CENTAUR R/B 4.3 21:23:28 10° NW 21:30:50 41° WSW 21:38:26 10° S
Cosmos 1452 Rocket 3.8 21:27:02 10° SSW 21:32:16 74° WNW 21:37:34 10° NNE
Lacrosse 5 3.2 21:32:45 10° SSE 21:36:01 17° ESE 21:39:17 10° ENE
Cosmos 1184 Rocket 2.8 21:33:45 10° S 21:37:00 57° E 21:40:18 10° NNE
Intercosmos 25 4.1 21:38:00 20° SE 21:39:13 25° E 21:41:53 10° NE
Cosmos 1674 Rocket 4.3 21:37:01 10° NNW 21:41:22 55° W 21:45:40 10° S
Cosmos 2297 3.8 21:38:04 10° S 21:43:35 54° ESE 21:49:10 10° NNE
CZ-3A R/B 4.2 21:30:01 10° W 21:47:49 32° SSW 21:51:21 16° SSE
H-2A R/B 4.0 21:43:54 10° WSW 21:48:09 48° S 22:12:06 10° ESE
Okean 2 Rocket 3.0 21:47:15 10° S 21:51:37 62° E 21:55:58 10° NNE
Cosmos 1606 3.3 21:51:50 10° NNW 21:55:42 58° W 21:59:21 11° S
Cosmos 1782 Rocket 3.5 21:51:59 10° S 21:56:26 89° E 22:00:56 10° N
CZ-4 DEB 4.3 21:55:43 10° SSW 21:58:37 33° W 22:01:33 10° NNW
EO 1 Delta rocket 4.0 21:54:20 10° N 21:59:58 87° E 22:04:43 10° S
NOSS 8 (E) 4.5 21:57:24 10° SSW 22:00:50 53° ESE 22:04:16 10° NE
USA 229 DEB 4.4 21:56:15 10° NNW 22:02:56 42° NE 22:07:00 23° ESE
USA 229 4.5 21:56:22 10° NNW 22:03:02 41° NE 22:07:06 22° ESE
Cosmos 1242 Rocket 2.6 21:59:56 10° N 22:03:36 59° E 22:04:46 38° SE
Cosmos 1850 Rocket 4.1 22:01:33 10° N 22:06:50 61° ENE 22:09:25 30° SE
COS B Rocket 3.5 22:04:42 10° N 22:08:28 60° W 22:10:45 19° SSW
ARGOS 4.0 22:09:05 27° ESE 22:10:53 33° ENE 22:15:38 10° N
YAOGAN 6 3.0 22:10:46 39° E 22:11:03 39° ENE 22:14:21 10° N
Nadezhda 3 Rocket 4.4 22:05:47 10° NNW 22:12:05 65° W 22:18:21 10° S
Lacrosse 5 rocket 1.3 22:08:32 10° SSW 22:12:24 47° SE 22:16:05 10° NE
Cosmos 2218 Rocket 4.1 22:08:10 20° SSE 22:12:38 57° E 22:18:52 10° NNE
GPS 2-05 Rocket1 2.8 22:09:16 10° W 22:13:00 81° S 22:13:49 52° ESE
OAO 3 Rocket 3.1 22:08:06 10° WSW 22:13:03 73° S 22:15:30 30° E
Cosmos 1975 Rocket 3.0 22:09:30 10° N 22:13:51 82° W 22:16:09 27° S
Cosmos 1408 4.2 22:10:35 10° SSW 22:13:57 34° W 22:17:19 10° NNW
DNEPR-1 R/B 3.6 22:09:26 10° NNW 22:14:35 86° ENE 22:16:17 38° SSE
PSLV R/B 3.5 22:16:18 49° NE 22:16:18 49° NE 22:18:52 10° N
CZ-4 R/B 4.5 22:16:04 10° NNE 22:20:06 33° E 22:20:06 33° E
Cosmos 1959 Rocket 4.4 22:16:51 22° S 22:20:53 66° E 22:26:55 10° NNE
CZ-4 SHROUD 3.4 22:23:32 59° NE 22:23:32 59° NE 22:26:17 10° N
Cosmos 1536 Rocket 4.1 22:22:34 10° N 22:26:48 40° E 22:27:02 39° E
Cosmos 1331 Rocket 4.2 22:27:09 43° SE 22:27:49 45° ESE 22:32:43 10° NNE
Cosmos 1727 Rocket 4.3 22:22:43 10° N 22:28:40 47° E 22:30:27 37° ESE
Cosmos 1741 Rocket 3.9 22:23:48 10° NNW 22:29:03 85° WSW 22:31:03 39° SSE
NOSS 8 (H) 4.3 22:30:35 84° E 22:30:35 84° E 22:34:10 10° NNE
MetOp-A 4.1 22:31:17 35° S 22:33:37 86° WSW 22:39:00 10° NNW
OAO 1 Rocket 4.3 22:31:36 10° W 22:36:55 83° S 22:38:33 46° E
Cosmos 1110 Rocket 3.9 22:35:43 42° S 22:37:21 66° ESE 22:42:32 10° NNE
Envisat 4.0 22:35:07 19° SSW 22:38:26 42° W 22:43:15 10° NNW
Meteor 1-20 Rocket 4.2 22:39:25 48° SE 22:40:29 56° E 22:45:53 10° NNE
Cosmos 614 Rocket 4.0 22:36:34 10° NNW 22:41:37 70° WSW 22:43:08 44° S
SEDSat Delta rocket 3.6 22:38:08 10° WSW 22:41:23 38° SW 22:41:23 38° SW
SL-8 Rocket 4.3 22:38:03 12° SSW 22:43:47 66° W 22:50:00 10° N
Cosmos 1833 Rocket 2.7 22:38:15 10° NNW 22:43:52 69° ENE 22:45:06 52° SE
Terra 3.1 22:44:32 27° ENE 22:44:32 27° ENE 22:48:18 10° NNE
USA 245 3.2 22:46:36 75° N 22:46:36 75° N 22:50:29 10° NNW
H-2A R/B 3.7 22:46:49 20° SW 22:48:50 28° W 22:52:31 10° NW
Timation 1 Rocket 4.4 22:49:57 10° SSW 22:55:56 76° WNW 23:01:58 10° NNE
Cosmos 2151 Rocket 4.3 22:56:55 36° SW 22:58:22 52° W 23:02:49 10° N
USA 234 4.1 22:54:24 10° ENE 22:58:06 30° E 22:58:06 30° E
Meteor 1-25 Rocket 4.3 22:58:34 40° SSW 23:00:47 80° W 23:06:38 10° N
Cosmos 1300 Rocket 4.1 23:04:46 51° NNE 23:04:46 51° NNE 23:08:14 10° NNE
SPOT 5 4.4 23:02:46 24° SW 23:05:08 35° W 23:10:01 10° NNW
CZ-4B R/B 3.9 23:01:54 10° N 23:06:40 55° WNW 23:08:19 36° SW
Cosmos 1486 Rocket 4.5 23:04:23 10° N 23:09:19 48° ENE 23:09:19 48° ENE
Cosmos 2082 Rocket 2.7 23:06:17 10° NNW 23:11:48 52° WSW 23:12:49 46° SW
Okean 1 4.3 23:07:47 10° N 23:10:39 43° N 23:10:39 43° N
Okean 1 Rocket 3.8 23:13:53 48° NNE 23:13:53 48° NNE 23:17:10 10° N
Cosmos 1812 3.9 23:12:34 10° N 23:15:11 41° NNW 23:15:11 41° NNW
Lacrosse 5 2.2 23:13:27 10° SW 23:18:29 63° NW 23:23:33 10° NE
H-2A R/B 2.0 23:20:50 77° NE 23:20:50 77° NE 23:25:59 10° N
Cosmos 1302 Rocket 4.1 23:32:20 72° NNW 23:32:20 72° NNW 23:37:16 10° NNE
Cosmos 1535 Rocket 4.4 23:37:20 75° E 23:37:20 75° E 23:43:34 10° N
Meteor 1-13 Rocket 4.3 23:38:12 10° N 23:43:51 80° NNW 23:43:51 80° NNW
ASTEX 1 4.0 23:40:34 10° N 23:44:25 54° N 23:44:25 54° N
Iridium 4 Rocket 4.2 23:44:30 10° N 23:49:23 56° NE 23:49:23 56° NE
Lacrosse 5 rocket 3.9 23:49:03 10° W 23:51:46 18° NW 23:54:26 10° N
